Dewpoint
53 53 53 53 53 53 53 54 54 54 54 55 54 55 55 56 56 56 57 56 56 57 57 57 57 57 57 56 57 57 57 56 53 47 48 36 41 56 68 67 64 75 78 74 70 68 68 67 65 67 63 61 65 62 65 65 67 66 62 59 57 58 56 54 47 44 45 43 52 55 56 58 58 58 61 62 61 62 62 62 63 64 65 65 67 68 69 69
53 53 53 53 53 53 53 54 54 54 54 55 54 55 55 56 56 56 56 56 57 57 56 56 56 57 57 56 56 57 57 54 48 45 41 42 60 59 63 69 70 78 74 70 67 66 66 65 64 66 63 61 67 65 65 64 67 63 57 56 56 55 56 51 49 46 44 43 53 54 57 58 58 58 61 59 60 60 61 62 63 64 66 67 67 68 69 69
53 53 53 53 53 53 53 53 53 53 54 54 55 55 55 55 56 56 56 56 56 56 56 56 56 57 57 56 57 57 56 51 47 34 27 58 67 62 64 70 74 76 68 68 66 65 64 64 64 65 65 63 65 65 65 64 66 65 61 55 54 56 54 51 49 49 50 46 51 54 56 57 58 60 60 58 59 60 60 61 63 64 65 66 67 68 68 68
53 54 53 53 53 53 53 53 53 54 54 54 54 55 55 55 55 56 56 56 56 56 56 56 56 56 56 56 57 56 54 52 20 17 20 66 74 71 65 69 76 73 65 67 65 63 63 63 64 65 64 63 63 65 65 64 65 65 63 60 58 57 56 56 55 54 52 44 50 54 56 56 58 59 59 59 58 59 60 61 61 63 65 66 67 68 68 68
54 53 53 53 53 53 53 53 54 54 54 54 54 54 55 55 55 56 55 56 56 56 56 56 56 56 56 57 57 56 53 12 9 16 19 71 73 74 68 70 76 65 63 64 62 61 61 61 63 62 63 61 59 61 62 63 64 55 63 62 60 57 49 52 50 50 46 45 51 53 54 54 58 59 58 58 56 57 59 61 61 64 66 66 67 67 68 68
52 52 52 52 53 53 53 53 54 54 54 54 54 54 54 55 55 55 55 56 56 56 56 56 56 56 56 56 56 55 28 8 16 19 74 71 73 74 68 72 74 61 60 59 57 59 60 61 62 60 59 59 59 57 56 61 61 57 57 56 58 59 57 56 52 48 45 44 44 51 54 57 57 57 58 58 55 56 59 61 62 65 66 67 67 67 68 68
53 53 53 52 53 53 53 53 53 54 53 54 54 54 54 54 55 55 55 55 55 55 55 56 56 56 56 57 55 55 28 11 27 22 58 71 73 72 69 75 70 59 57 54 55 57 59 60 61 60 58 57 56 58 56 58 59 57 55 53 51 51 52 53 51 50 45 44 44 49 57 56 57 55 58 57 56 59 61 62 64 65 66 67 67 67 67 68
53 52 53 53 53 53 53 53 53 53 54 53 54 54 55 55 55 55 55 55 55 56 56 55 56 56 56 54 50 28 36 29 26 26 49 76 69 68 72 70 59 58 55 53 55 55 57 59 59 59 58 56 53 55 55 54 54 55 54 55 54 53 52 51 49 47 45 45 44 54 55 55 56 55 58 57 58 61 62 63 64 65 66 66 67 67 67 67
53 52 53 53 53 53 53 53 53 53 53 54 54 53 54 55 54 55 55 55 55 56 56 55 56 56 55 56 41 15 12 25 25 27 66 65 66 66 66 62 58 56 55 55 55 55 55 57 58 58 55 55 53 50 52 51 49 52 52 52 52 51 51 50 46 42 41 43 44 53 54 55 56 57 56 57 59 61 63 64 64 65 65 66 66 67 67 67
52 52 52 52 53 53 53 53 53 53 53 53 53 54 54 54 54 55 55 55 56 56 55 55 55 55 54 54 40 12 13 21 30 52 65 65 65 62 59 58 56 53 56 55 54 55 53 55 55 56 42 46 46 46 46 49 48 51 52 51 51 51 51 50 47 45 42 40 44 47 51 54 54 55 53 57 61 63 63 64 64 65 65 65 66 66 66 67
52 52 52 52 52 53 53 53 53 53 53 54 54 54 54 54 54 55 55 55 55 56 55 55 55 55 51 55 22 11 16 38 48 63 64 63 61 57 57 59 55 51 54 52 51 55 53 54 54 52 46 43 40 41 42 42 43 41 41 40 39 39 40 41 36 31 31 34 43 43 47 52 51 53 52 56 61 63 63 63 64 64 64 65 65 66 66 67
52 52 52 52 52 52 52 52 53 53 54 54 54 54 54 54 54 54 54 55 55 55 55 55 55 55 54 51 38 14 25 35 52 59 61 58 56 54 56 58 54 49 48 48 47 51 50 48 46 45 42 41 40 39 38 40 41 40 38 33 28 19 16 17 17 18 31 31 44 42 41 44 47 50 52 59 62 62 63 63 64 64 64 65 65 65 66 66
52 52 52 52 52 52 52 52 53 53 53 53 53 53 54 54 53 54 55 55 55 55 55 56 56 54 51 28 35 32 27 25 27 29 29 52 50 52 54 59 54 49 45 46 46 45 42 38 44 42 39 35 36 35 39 38 33 31 25 19 17 16 15 18 21 23 34 39 43 41 38 40 44 48 57 61 61 62 62 63 63 64 64 64 65 65 65 66
52 52 52 52 52 52 52 53 53 53 53 53 53 53 53 52 53 55 57 58 57 54 55 57 55 54 48 30 27 34 34 31 31 31 28 41 39 46 49 59 55 50 48 43 43 45 43 38 38 38 41 39 37 39 35 36 35 33 32 19 18 16 16 20 32 38 35 42 41 42 38 39 40 44 58 61 61 61 61 62 63 63 64 64 64 65 65 66
51 51 51 51 52 52 52 52 52 52 53 53 53 52 52 52 54 58 58 55 56 56 57 57 55 51 37 28 35 35 54 41 39 35 33 39 42 36 44 56 56 51 47 43 37 44 43 40 38 36 33 39 38 33 30 28 21 19 25 21 18 15 17 19 28 40 37 42 41 41 40 39 40 44 59 60 61 61 61 62 63 63 63 64 64 65 65 65
51 51 52 52 52 52 52 52 52 53 53 52 51 51 52 54 57 58 57 57 57 57 56 54 55 54 45 22 15 56 49 42 36 35 33 31 34 23 39 51 53 50 46 45 41 41 42 41 37 36 33 34 34 31 27 26 27 22 28 25 19 17 16 15 19 36 37 42 42 41 39 41 42 51 59 60 60 60 60 61 62 63 63 63 64 64 65 65
51 51 52 52 52 52 52 52 52 53 52 51 51 51 52 55 59 59 59 58 56 56 55 52 54 57 21 18 28 29 27 40 47 46 44 31 27 29 43 42 43 46 44 41 39 36 40 40 40 37 37 31 32 30 25 24 25 28 20 21 20 18 18 17 17 20 38 42 41 41 40 41 46 55 58 59 60 60 60 61 62 62 62 63 63 64 64 65
51 52 51 51 52 52 52 52 52 52 51 50 51 50 49 54 58 59 58 58 57 57 57 57 52 41 23 29 27 27 35 39 45 45 44 43 29 30 37 36 40 42 41 40 37 35 36 38 35 33 31 33 29 27 20 22 27 30 28 21 17 19 15 15 16 19 39 41 41 41 40 41 51 56 58 59 60 59 59 60 61 61 62 62 63 63 64 64
51 51 51 52 52 52 52 52 52 51 50 51 51 50 53 55 55 54 55 56 45 36 31 45 37 22 11 22 29 30 30 37 38 38 37 36 34 28 28 34 41 38 37 37 36 35 31 32 30 30 28 31 29 26 21 27 26 26 23 20 18 15 16 16 16 18 23 36 39 40 40 40 51 55 57 58 59 59 59 60 61 61 61 62 62 63 63 64
51 51 51 52 52 52 52 52 51 50 49 49 43 44 40 29 29 28 45 33 29 29 29 37 44 36 36 34 32 32 34 38 34 37 41 43 31 28 27 29 31 34 34 33 29 35 30 30 26 26 27 27 29 28 26 27 26 22 18 18 16 15 15 16 17 18 29 37 38 40 40 40 47 54 57 58 58 58 58 59 60 61 61 61 61 62 63 64
52 51 52 52 52 52 52 51 50 49 50 47 43 33 28 28 28 25 28 28 28 29 29 29 34 40 36 34 36 33 29 30 40 38 40 45 31 28 28 27 27 28 30 32 28 30 30 30 29 27 25 24 25 26 26 25 24 24 23 21 20 17 17 18 18 20 24 30 38 42 40 40 46 53 56 57 58 57 58 59 59 60 60 61 61 61 62 63
52 52 52 52 52 51 51 50 49 50 50 45 40 31 30 31 31 31 29 26 28 29 29 29 29 29 32 34 34 35 33 30 28 27 28 33 29 30 29 24 24 23 28 30 27 23 25 28 28 26 23 24 25 24 24 24 23 20 21 22 19 20 19 18 17 18 20 33 28 38 40 40 42 52 55 57 57 57 58 58 59 60 60 60 60 61 62 63
52 53 52 52 52 51 51 50 49 49 43 39 38 39 30 33 35 34 32 29 29 30 28 27 27 28 27 28 30 32 29 28 25 25 25 37 30 31 27 23 23 24 26 27 29 25 21 22 23 22 23 23 24 24 22 21 21 20 18 19 19 20 19 17 18 21 21 23 31 37 36 39 46 53 54 56 57 57 58 58 59 59 60 60 60 60 61 62
53 52 52 52 51 51 50 49 48 44 39 40 39 40 34 36 37 36 33 29 23 21 27 26 26 25 25 25 27 30 28 27 27 25 36 35 31 31 25 23 22 24 25 25 28 27 25 21 22 22 22 22 21 22 22 21 20 19 19 18 18 18 18 17 18 17 18 21 29 36 38 39 47 50 52 55 56 57 57 57 58 59 59 60 60 60 61 61
53 52 53 52 51 51 48 48 41 40 42 37 38 39 37 38 39 38 36 28 23 25 27 24 25 23 23 30 31 28 29 29 28 25 33 33 32 28 27 25 24 22 24 25 25 25 24 24 22 21 21 21 21 20 21 21 21 21 20 19 20 19 19 19 19 16 17 16 20 28 30 36 42 47 49 53 55 55 56 56 57 58 59 59 59 59 60 61
52 52 52 52 51 50 48 36 35 41 41 34 31 34 38 39 40 42 33 25 19 20 24 20 22 20 23 26 30 29 29 26 28 27 32 33 34 32 27 24 23 21 23 23 23 24 24 23 21 21 21 21 20 20 21 21 20 21 22 20 19 18 18 18 17 16 20 19 24 34 23 26 39 43 47 52 54 54 55 55 56 57 58 58 58 59 59 60
52 52 52 51 51 49 40 34 39 42 31 26 32 36 39 40 42 42 26 20 21 24 19 24 22 20 21 23 28 22 15 16 26 27 28 38 29 29 27 24 23 25 24 26 26 21 22 22 21 21 21 20 20 19 20 20 20 20 20 21 19 18 17 16 15 15 19 28 27 25 35 30 31 38 43 50 52 53 54 54 55 56 57 57 58 58 59 59
52 52 51 51 50 49 44 43 43 40 37 35 37 39 41 42 44 43 24 19 21 27 20 18 20 22 20 25 25 18 19 14 15 21 24 31 29 25 25 23 22 21 23 23 19 26 22 21 21 20 20 20 19 19 21 21 19 20 17 15 15 15 15 14 14 15 17 18 15 20 34 22 25 32 43 47 50 52 53 53 54 55 56 57 57 57 58 59
52 51 51 50 49 48 46 44 43 41 39 39 40 42 43 44 44 25 22 18 23 20 21 15 19 15 17 23 20 18 11 13 12 13 21 30 29 26 24 22 22 21 23 22 20 23 23 21 21 21 20 19 21 21 21 20 19 21 17 19 18 16 15 13 15 15 25 19 14 17 22 16 18 29 40 45 47 49 51 53 53 54 55 55 56 57 57 58
52 51 51 50 48 43 42 44 44 43 42 43 42 43 45 45 29 24 21 18 25 17 18 19 18 16 17 17 16 15 13 11 13 16 21 24 27 25 24 24 21 21 21 22 21 23 24 33 27 21 20 20 21 21 21 20 20 20 19 19 18 16 17 29 21 21 21 14 14 14 18 14 13 21 33 41 43 47 49 51 52 53 53 54 55 56 57 57
51 50 50 50 44 43 45 40 36 37 40 43 44 45 44 28 27 21 19 19 18 21 19 19 22 23 19 15 7 9 11 11 8 16 16 18 23 23 24 21 21 20 20 21 20 21 21 27 25 24 25 22 21 21 22 21 21 18 15 17 18 18 18 20 19 25 12 10 19 14 15 15 13 20 31 40 42 44 46 48 50 51 51 52 54 55 56 56
50 49 50 48 46 48 43 37 37 41 43 44 45 44 23 15 17 17 18 23 19 21 21 22 23 23 22 21 12 10 8 9 8 11 11 13 20 21 21 23 20 19 19 19 19 21 19 19 24 23 35 22 22 20 20 20 19 19 16 18 16 18 15 15 16 12 11 10 20 15 15 22 17 23 25 33 40 41 44 46 47 49 50 51 52 53 55 55
49 48 48 47 46 43 45 44 44 44 44 45 45 37 20 16 14 16 16 17 21 25 22 26 23 24 22 19 15 16 11 7 9 7 8 9 18 22 21 23 22 21 20 20 19 18 19 20 20 21 24 30 23 19 21 18 17 17 16 16 16 13 10 11 15 16 15 16 18 17 18 10 22 27 23 25 37 41 42 44 46 48 49 50 50 52 53 54
48 48 44 43 44 43 44 46 46 45 43 47 38 28 24 16 16 37 15 18 20 27 27 26 26 24 23 17 16 13 10 8 6 6 7 10 13 19 21 21 22 22 21 22 18 17 17 17 17 19 18 26 24 22 22 22 17 17 16 14 17 16 14 11 12 7 6 10 16 18 14 17 15 18 24 19 30 41 42 42 44 46 47 49 49 50 51 53
48 46 43 42 43 43 44 44 44 41 47 41 33 25 18 17 20 18 19 24 26 27 27 27 25 21 17 16 16 20 21 17 19 13 6 10 11 17 20 20 20 22 20 18 23 23 17 18 21 20 20 25 24 25 24 18 17 16 14 15 17 14 23 12 14 12 14 11 10 21 15 24 16 31 40 24 23 37 42 42 43 43 45 46 47 47 49 51
45 42 42 39 41 42 41 40 36 39 43 37 30 25 19 20 16 22 23 29 27 27 27 24 24 20 20 19 24 24 25 22 19 16 9 10 13 16 20 21 19 21 18 18 21 17 22 17 19 22 22 23 23 25 24 20 20 18 13 13 15 16 12 17 29 23 22 15 12 28 23 22 25 26 27 31 29 32 40 42 42 42 43 45 45 46 47 49
43 43 38 39 41 41 36 35 37 40 43 36 30 26 25 22 23 28 37 28 29 29 27 20 22 20 21 21 18 23 24 22 21 18 17 14 13 25 19 19 23 21 20 21 20 19 18 19 18 17 17 19 21 23 22 21 20 12 14 15 14 15 14 16 12 16 13 10 13 21 16 15 22 16 38 31 32 30 37 41 42 43 43 43 44 45 46 47
44 42 43 42 42 39 35 36 37 43 41 36 32 37 35 29 32 32 31 32 31 30 28 25 24 24 24 24 22 23 23 21 22 22 21 18 18 28 26 27 26 28 29 28 20 22 18 16 15 16 17 18 21 21 20 20 13 15 15 13 15 14 14 19 17 10 10 10 10 11 22 18 23 22 32 29 32 31 34 39 41 42 42 43 44 45 46 46
42 40 34 33 36 35 36 38 40 43 38 34 33 31 36 36 34 34 34 33 33 31 26 25 22 26 27 25 25 23 22 21 22 22 21 20 18 25 26 27 27 29 31 29 20 22 20 15 18 17 16 17 18 19 18 18 18 19 11 12 18 13 21 15 14 20 15 12 16 9 15 10 23 21 28 27 31 32 32 36 39 41 42 43 44 44 45 46
41 37 31 37 35 35 38 39 43 41 37 32 33 33 34 33 34 33 30 30 32 31 29 28 28 27 27 26 24 22 24 22 23 23 23 21 21 28 27 28 27 29 34 34 21 21 16 21 15 16 17 16 16 19 16 17 17 16 14 10 14 19 16 14 20 10 14 16 11 10 6 15 22 26 27 28 30 33 33 34 39 41 42 42 43 44 46 47
42 38 34 38 34 37 38 35 32 33 34 35 30 28 28 29 31 30 29 29 27 32 31 30 29 27 27 25 23 25 24 27 26 23 23 23 25 23 27 27 28 29 33 30 36 34 22 17 15 19 15 13 15 18 17 17 17 17 16 15 11 10 12 10 12 13 16 14 16 9 6 18 22 30 29 27 30 31 34 36 37 40 42 44 44 44 46 47
37 30 27 32 36 39 36 31 30 31 30 27 28 29 28 35 29 29 29 29 28 26 30 28 28 27 27 26 25 29 29 28 27 24 24 23 27 26 27 27 27 29 36 37 39 35 40 33 23 14 14 13 14 16 18 17 17 17 16 16 12 10 12 13 13 12 14 12 24 19 13 12 22 27 30 29 28 30 34 36 37 38 40 42 44 43 46 48
35 33 36 38 39 38 33 30 31 32 30 30 32 30 30 29 29 28 28 28 27 27 26 26 25 25 27 27 28 27 28 29 27 25 29 28 26 27 27 26 27 33 39 38 40 41 42 32 25 22 26 23 19 17 17 19 16 15 16 17 12 9 8 10 12 18 12 17 15 15 17 17 26 33 29 27 29 27 31 35 37 37 38 40 42 44 46 47
37 37 38 39 40 36 30 27 28 29 32 31 31 29 29 29 29 29 28 28 28 27 26 26 26 26 25 28 28 27 29 26 29 26 27 27 28 29 27 27 28 30 37 38 38 34 31 32 24 18 16 18 16 18 16 18 19 16 15 16 15 13 9 13 22 24 19 13 12 12 9 13 24 42 40 38 36 30 29 28 37 36 39 40 42 44 46 49
39 39 39 40 41 34 30 33 30 30 31 31 30 27 27 27 28 30 30 29 29 29 27 25 26 26 27 29 29 28 28 28 29 28 25 26 27 31 27 27 28 27 33 39 40 37 34 34 29 19 16 14 14 13 15 18 16 19 20 16 17 15 12 12 9 20 15 24 19 14 11 26 29 35 32 33 36 34 33 34 39 39 40 39 42 44 49 51
35 29 31 32 34 34 34 33 33 33 31 31 30 28 27 26 27 30 32 31 32 30 30 28 28 30 29 29 28 27 27 28 27 27 28 25 26 28 28 28 28 27 40 39 39 36 37 38 33 29 26 22 26 29 30 34 25 13 15 16 16 16 15 12 18 17 13 24 16 17 25 23 21 21 24 26 33 30 27 31 34 36 37 41 45 47 48 50
39 31 31 29 33 34 32 32 32 33 32 33 27 28 27 27 28 29 31 32 33 31 31 29 30 29 28 28 28 27 28 27 28 29 26 24 27 27 28 28 27 37 40 33 36 36 37 32 34 34 34 35 32 31 30 33 30 29 22 14 16 16 17 14 14 15 27 20 16 24 33 17 17 22 23 27 27 30 29 27 24 32 39 40 43 49 56 52
30 32 36 38 32 28 30 29 32 34 34 33 30 30 28 28 29 29 30 31 31 33 33 31 32 31 30 28 28 27 29 28 29 27 28 27 28 28 26 26 27 35 34 25 33 35 33 31 33 33 30 29 30 30 31 31 30 29 27 20 14 16 17 16 17 25 23 16 16 25 31 24 23 20 19 23 25 25 22 23 20 27 39 42 42 43 43 45
37 38 37 40 32 33 33 33 35 34 33 32 33 31 28 29 29 30 29 30 30 30 32 31 32 32 32 30 30 29 30 26 26 30 29 28 28 28 26 27 29 28 27 26 25 34 34 33 34 32 28 29 30 30 31 30 29 27 25 23 17 13 15 16 16 19 18 22 22 26 30 21 18 17 19 21 25 23 28 35 37 35 27 33 35 37 37 40
35 35 33 37 36 35 35 34 34 33 31 34 32 30 31 29 28 29 30 30 29 30 33 29 29 30 31 31 31 28 28 29 29 28 32 30 29 30 28 28 26 28 27 26 26 30 29 29 29 29 30 29 29 32 30 29 29 29 28 24 19 15 13 14 15 17 23 19 17 20 31 28 25 25 18 22 33 39 40 38 28 30 31 33 37 36 39 41
40 41 42 37 33 33 35 35 33 32 30 30 30 30 31 29 29 30 30 31 30 30 31 29 30 31 32 31 31 30 30 30 31 30 32 31 30 30 29 29 27 26 28 27 30 33 30 30 33 33 28 26 28 28 28 28 29 28 27 26 21 16 14 13 15 16 21 23 24 20 24 25 29 31 30 28 31 32 28 28 38 40 42 45 41 39 40 43
44 45 43 40 32 35 32 32 32 32 28 30 31 31 30 29 30 31 30 31 32 33 32 32 32 32 32 31 30 30 33 33 34 35 35 34 33 32 31 30 28 28 30 30 31 29 31 32 28 30 26 28 28 27 27 29 28 21 20 21 22 20 17 15 15 23 21 19 20 20 18 26 26 32 28 25 24 26 28 32 43 46 47 48 46 43 42 45